CAPE
0 0 0 0 0 0 0 0 0 0 0 0 0 0 0 0 0 0 0 0 0 0 0 0 0 0 0 0 0 0 0 0 0 0 0 0 0 0 0 0 0 0 1 1
0 0 6 5 7 1 1 0 0 0 0 0 0 0 0 0 0 0 0 0 0 0 0 0 0 0 0 0 0 0 0 0 0 0 0 0 0 0 0 0 0 0 0 0
0 0 0 0 0 0 0 0 0 0 0 0 0 0 0 0 0 0 0 0 0 0 0 0 0 0 0 0 0 0 0 0 0 0 0 0 0 0 0 0 0 0 0 0
0 0 0 0 0 0 0 0 0 0 0 0 0 0 0 0 0 0 0 0 0 0 0 0 0 0 0 0 0 0 0 0 0 0 0 0 0 0 0 0 0 0 0 0
0 0 0 0 0 0 0 0 0 0 0 0 0 0 0 0 0 0 0 0 0 0 0 0 0 0 0 0 0 0 0 0 0 0 0 0 0 0 0 0 0 0 0 0
0 0 0 0 0 0 0 0 0 0 0 0 0 0 0 0 0 0 0 0 0 0 0 0 0 0 0 0 0 0 0 0 0 0 0 0 0 0 0 0 0 0 0 0
2 4 17 0 0 0 0 0 0 0 0 0 0 0 0 0 0 0 0 0 0 1 0 0 0 0 0 0 0 0 0 0 0 0 0 0 0 0 0 0 0 0 0 0
0 0 0 0 0 0 8 6 0 0 0 0 0 0 0 0 0 0 0 0 0 0 0 0 0 0 0 0 0 0 0 0 0 0 0 0 0 0 0 0 0 0 0 0
2 0 0 0 0 0 0 0 0 0 0 0 0 0 0 0 0 0 0 0 0 0 0 0 0 0 0 0 0 0 0 0 0 0 0 0 0 0 0 0 0 0 0 0
0 0 0 0 0 0 0 0 0 0 0 0 0 0 0 0 0 0 0 0 0 0 0 0 0 0 0 0 0 0 0 0 0 0 0 0 0 0 0 0 0 0 0 0
0 0 0 0 0 0 0 0 0 0 0 0 0 0 0 0 0 0 0 0 0 0 0 0 0 0 0 0 0 0 0 0 0 0 0 0 0 0 0 0 0 0 0 0
0 0 0 0 0 0 0 0 0 0 0 0 0 0 0 0 0 0 0 0 0 0 0 0 0 0 0 0 0 0 0 0 0 0 0 0 0 0 1 0 2 2 1 0
0 0 0 0 0 0 0 0 0 0 0 0 0 0 0 0 0 0 0 0 0 0 0 0 0 0 0 0 0 0 0 0 0 0 0 0 0 0 0 2 3 3 3 3
0 0 0 0 0 0 0 0 0 0 0 0 0 0 0 0 0 0 0 0 0 0 0 0 0 0 0 0 0 0 0 0 0 0 0 0 0 0 0 0 0 0 3 2
0 0 0 0 0 0 0 0 0 0 0 0 0 0 0 0 0 0 0 0 0 0 0 0 0 0 0 0 0 0 0 0 0 0 0 0 0 0 0 0 0 0 0 0
0 0 0 0 0 0 0 0 0 0 0 0 0 0 0 0 0 2 0 0 0 0 0 0 0 0 0 0 0 0 0 0 0 0 0 0 0 0 0 0 0 0 0 0
0 0 0 0 0 0 0 0 0 0 0 0 0 0 0 0 0 0 0 0 0 0 0 0 0 0 0 0 0 0 0 0 0 0 0 0 0 0 0 0 0 0 0 0
0 0 0 0 0 0 0 0 2 2 0 1 0 1 0 0 0 0 0 0 0 0 0 0 0 0 0 0 0 0 0 0 0 0 0 0 0 0 0 0 0 0 0 0
1 1 1 0 2 1 1 1 1 0 0 0 0 0 0 2 0 0 0 0 0 0 0 0 0 0 0 0 0 0 0 0 0 0 0 0 0 0 0 0 0 0 0 0
0 0 0 0 0 0 0 0 0 0 0 0 0 0 0 0 0 0 0 0 0 0 0 0 0 0 0 0 0 0 0 0 0 0 0 0 0 0 0 0 0 0 0 0
0 0 0 0 0 0 0 0 0 0 0 0 0 0 0 0 0 0 0 0 0 0 0 0 0 0 0 0 0 0 0 0 0 0 0 0 0 0 0 0 0 0 0 0
0 0 0 0 0 0 0 0 0 0 0 0 0 0 0 0 0 0 0 0 0 0 0 0 0 0 0 0 0 0 0 0 0 0 0 0 0 0 0 0 0 0 0 0
0 0 0 0 0 0 0 0 0 0 0 0 0 0 0 0 0 0 0 0 0 0 0 0 0 0 0 0 0 0 0 0 0 0 0 0 0 0 0 0 0 0 0 0
0 0 0 0 0 0 0 0 0 0 0 0 0 0 0 0 0 0 0 0 0 0 0 0 0 0 0 0 0 0 0 0 0 0 0 0 0 0 0 0 0 0 0 0
0 0 0 0 0 0 0 0 0 0 0 0 0 0 0 0 0 0 0 0 0 0 0 0 0 0 0 0 0 0 0 0 0 0 0 0 0 0 0 0 0 0 0 0
0 0 0 0 2 1 0 0 0 0 0 0 0 0 0 0 0 0 0 0 0 0 0 0 0 0 0 0 0 0 0 0 0 0 0 0 0 0 0 0 0 0 0 0
0 0 0 0 0 0 0 0 0 0 0 0 0 0 0 0 0 0 0 0 0 0 0 0 0 0 0 0 0 0 0 0 0 0 0 0 0 0 0 0 0 0 0 0
CIN
-0 -0 -0 -0 -0 -0 -0 -0 -0 -0 -0 -0 -0 -0 -0 -0 -0 -0 -0 -0 -0 -0 -0 -0 -0 -0 -0 -0 -0 -0 -0 -0 -0 -0 -0 -0 -0 -0 -0 -0 -0 -0 -0 -0
-0 -0 -0 -0 -0 -0 -0 -0 -0 -0 -0 -0 -0 -1 -0 -0 -0 -0 -0 -0 -0 -0 -0 -0 -0 -0 -0 -0 -0 -0 -0 -0 -0 -0 -0 -0 -0 -0 -0 -0 -0 -0 -0 -0
-0 -0 -0 -0 -0 -0 -0 -0 -0 -0 -0 -0 -0 -0 -46 -0 -0 -0 -0 -0 -0 -0 -0 -0 -0 -0 -0 -0 -0 -0 -0 -0 -0 -0 -0 -0 -0 -0 -0 -0 -0 -0 -0 -0
-0 -0 -0 -0 -0 -0 -0 -0 -0 -0 -0 -0 -0 -0 -0 -0 -0 -0 -0 -0 -0 -0 -0 -0 -0 -0 -0 -0 -0 -0 -0 -0 -0 -0 -0 -0 -0 -0 -0 -0 -0 -0 -0 -0
-0 -0 -0 -0 -0 -0 -0 -0 -0 -0 -0 -0 -0 -0 -0 -0 -0 -0 -0 -0 -0 -0 -0 -0 -0 -0 -0 -0 -0 -0 -0 -0 -0 -0 -0 -0 -0 -0 -0 -0 -0 -0 -0 -0
-0 -0 -0 -0 -0 -0 -0 -0 -0 -0 -0 -0 -0 -0 -0 -0 -0 -0 -0 -0 -0 -0 -0 -0 -0 -0 -0 -0 -0 -0 -0 -0 -0 -0 -0 -0 -0 -0 -0 -0 -0 -0 -0 -0
-0 -1 -1 -0 -0 -0 -0 -0 -0 -0 -0 -0 -0 -0 -0 -0 -0 -0 -0 -0 -0 -0 -0 -0 -0 -0 -0 -0 -0 -0 -0 -0 -0 -0 -0 -0 -0 -0 -0 -0 -0 -0 -0 -0
-0 -0 -0 -0 -0 -0 -0 -0 -0 -0 -0 -0 -0 -0 -0 -0 -0 -0 -0 -0 -0 -0 -0 -0 -0 -0 -0 -0 -0 -0 -0 -0 -0 -0 -0 -0 -0 -0 -0 -0 -0 -0 -0 -0
-18 -0 -0 -0 -0 -0 -0 -0 -0 -0 -0 -0 -0 -0 -0 -0 -0 -0 -0 -0 -0 -0 -0 -0 -0 -0 -0 -0 -0 -0 -0 -0 -0 -0 -0 -0 -0 -0 -0 -0 -0 -0 -0 -0
-0 -0 -0 -0 -0 -0 -0 -1 -0 -0 -0 -0 -0 -0 -0 -0 -0 -0 -0 -0 -0 -0 -0 -0 -0 -0 -0 -0 -0 -0 -0 -0 -0 -0 -0 -0 -0 -0 -0 -0 -0 -0 -0 -0
-0 -0 -0 -0 -0 -0 -0 -0 -0 -0 -0 -0 -0 -0 -0 -0 -0 -0 -0 -0 -0 -0 -0 -0 -0 -0 -0 -0 -0 -0 -0 -0 -0 -0 -0 -0 -0 -0 -0 -0 -0 -0 -0 -0
-0 -0 -0 -0 -0 -0 -0 -0 -0 -0 -0 -0 -0 -0 -0 -0 -0 -0 -0 -0 -0 -0 -0 -0 -0 -0 -0 -0 -0 -0 -0 -0 -0 -0 -0 -0 -0 -0 -0 -0 -0 -0 -0 -0
-0 -0 -0 -0 -0 -0 -0 -0 -0 -0 -0 -0 -0 -0 -0 -0 -0 -0 -0 -0 -0 -0 -0 -0 -0 -0 -0 -0 -0 -0 -0 -0 -0 -0 -0 -0 -0 -0 -0 -0 -0 -0 -0 -0
-0 -0 -0 -0 -0 -0 -0 -0 -0 -0 -0 -0 -0 -0 -0 -0 -0 -0 -0 -0 -0 -0 -0 -0 -0 -0 -0 -0 -0 -0 -0 -0 -0 -0 -0 -0 -0 -0 -0 -0 -0 -0 -0 -0
-0 -0 -0 -0 -0 -0 -0 -0 -0 -0 -0 -0 -0 -0 -0 -0 -0 -0 -0 -0 -0 -0 -0 -0 -0 -0 -0 -0 -0 -0 -0 -0 -0 -0 -0 -0 -0 -0 -0 -0 -0 -0 -0 -0
-0 -0 -0 -0 -0 -0 -0 -0 -0 -0 -0 -0 -0 -0 -0 -0 -0 -0 -0 -0 -0 -0 -0 -0 -0 -0 -0 -0 -0 -0 -0 -0 -0 -0 -0 -0 -0 -0 -0 -0 -0 -0 -0 -0
-0 -0 -0 -0 -0 -0 -0 -0 -0 -0 -0 -0 -0 -0 -0 -0 -0 -0 -0 -0 -0 -0 -0 -0 -0 -0 -0 -0 -0 -0 -0 -0 -0 -0 -0 -0 -0 -0 -0 -0 -0 -0 -0 -0
-0 -0 -0 -0 -0 -0 -0 -0 -0 -0 -0 -0 -0 -0 -0 -0 -0 -0 -0 -0 -0 -0 -0 -0 -0 -0 -0 -0 -0 -0 -0 -0 -0 -0 -0 -0 -0 -0 -0 -0 -0 -0 -0 -0
-0 -0 -0 -0 -0 -0 -0 -0 -0 -0 -0 -0 -0 -0 -0 -0 -0 -0 -0 -0 -0 -0 -0 -0 -0 -0 -0 -0 -0 -0 -0 -0 -0 -0 -0 -0 -0 -0 -0 -0 -0 -0 -0 -0
-0 -0 -0 -0 -0 -0 -0 -0 -0 -0 -0 -0 -0 -0 -0 -0 -0 -0 -0 -0 -0 -0 -0 -0 -0 -0 -0 -0 -0 -0 -0 -0 -0 -0 -0 -0 -0 -0 -0 -0 -0 -0 -0 -0
-0 -0 -0 -0 -0 -0 -0 -0 -0 -0 -0 -0 -0 -0 -0 -0 -0 -0 -0 -0 -0 -0 -0 -0 -0 -0 -0 -0 -0 -0 -0 -0 -0 -0 -0 -0 -0 -0 -0 -0 -0 -0 -0 -0
-0 -0 -0 -0 -0 -0 -0 -0 -0 -0 -0 -0 -0 -0 -0 -0 -0 -0 -0 -0 -0 -0 -0 -0 -0 -0 -0 -0 -0 -0 -0 -0 -0 -0 -0 -0 -0 -0 -0 -0 -0 -0 -0 -0
-0 -0 -0 -0 -0 -0 -0 -0 -0 -0 -0 -0 -0 -0 -0 -0 -0 -0 -0 -0 -0 -0 -0 -0 -0 -0 -0 -0 -0 -0 -0 -0 -0 -0 -0 -0 -0 -0 -0 -0 -0 -0 -0 -0
-0 -0 -0 -0 -0 -0 -0 -0 -0 -0 -0 -0 -0 -0 -0 -0 -0 -0 -0 -0 -0 -0 -0 -0 -0 -0 -0 -0 -0 -0 -0 -0 -0 -0 -0 -0 -0 -0 -0 -0 -0 -0 -0 -0
-0 -0 -0 -0 -0 -0 -0 -0 -0 -0 -0 -0 -0 -0 -0 -0 -0 -0 -0 -0 -0 -0 -0 -0 -0 -0 -0 -0 -0 -0 -0 -0 -0 -0 -0 -0 -0 -0 -0 -0 -0 -0 -0 -0
-0 -1 -0 -0 -0 -0 -0 -0 -0 -0 -0 -0 -0 -0 -0 -0 -0 -0 -0 -0 -0 -0 -0 -0 -0 -0 -0 -0 -0 -0 -0 -0 -0 -0 -0 -0 -0 -0 -0 -0 -0 -0 -0 -0
-0 -0 -0 -0 -0 -2 -1 -0 -0 -0 -0 -0 -0 -0 -0 -0 -0 -0 -0 -0 -0 -0 -0 -0 -0 -0 -0 -0 -0 -0 -0 -0 -0 -0 -0 -0 -0 -0 -0 -0 -0 -0 -0 -0
Wind_Speed
1 7 6 5 4 2 2 3 10 7 10 9 10 12 12 15 12 11 9 8 8 7 8 7 7 7 6 5 6 8 9 8 8 7 8 9 9 9 9 10 9 9 9 8
5 7 7 6 9 13 13 10 9 6 16 6 15 14 12 16 16 15 12 9 9 8 7 9 10 10 8 8 7 7 7 8 8 8 9 9 9 9 9 9 9 9 8 9
4 6 8 7 17 19 12 15 12 13 17 8 9 12 16 20 14 15 12 12 10 10 10 10 13 13 13 11 9 9 8 8 9 9 9 8 9 10 9 10 9 9 8 8
3 4 11 7 12 20 20 18 17 18 19 18 9 12 15 14 8 12 12 10 9 8 8 9 7 9 8 10 10 9 9 10 9 9 10 10 10 8 8 8 8 8 8 8
6 11 9 8 5 8 12 10 4 12 21 20 6 4 16 5 11 13 9 11 9 6 6 7 9 10 11 10 10 9 10 10 10 9 10 9 9 9 8 8 7 7 8 9
2 5 5 1 5 6 3 5 7 7 10 11 4 4 10 3 10 11 11 6 7 6 5 9 8 11 11 10 11 11 11 11 11 11 12 12 11 11 8 8 9 7 8 8
11 9 3 2 8 6 9 1 7 5 5 8 4 4 14 15 12 6 5 6 6 5 7 7 8 10 9 9 12 7 8 9 9 9 9 9 9 6 9 8 8 8 8 7
6 7 8 3 5 3 2 3 5 4 4 5 7 8 9 11 13 9 7 7 10 10 7 5 9 11 9 8 6 8 9 8 8 8 7 8 11 8 9 9 9 8 8 6
5 4 2 2 4 5 7 8 7 6 7 7 8 4 7 9 9 9 7 7 8 9 10 9 6 7 10 7 9 9 9 9 8 7 7 7 9 10 8 9 8 8 7 7
8 4 3 4 1 6 8 10 10 8 8 7 10 6 8 7 8 6 5 6 8 12 12 8 6 6 5 8 9 8 8 8 8 8 8 8 6 7 7 7 7 7 8 7
13 17 14 16 15 15 11 12 9 9 10 8 9 12 8 7 6 7 7 6 8 10 11 11 9 8 9 9 10 9 8 7 7 6 7 7 6 7 7 7 9 9 8 8
14 21 15 20 21 15 15 14 13 10 12 11 9 12 9 9 5 6 6 6 7 6 8 10 11 11 9 9 9 10 8 7 6 6 6 6 7 5 7 9 13 14 15 12
18 21 20 23 24 19 18 19 19 16 16 16 13 11 10 10 6 5 5 8 11 12 9 10 9 11 9 9 10 10 8 8 6 6 6 7 6 7 7 6 14 15 17 16
16 16 20 22 17 19 12 14 18 18 15 15 12 10 11 11 8 10 12 13 12 9 10 11 12 10 10 12 10 9 7 10 7 6 7 7 7 7 6 8 8 7 14 11
18 17 23 22 20 20 14 13 15 17 17 13 11 12 14 13 13 13 11 12 9 8 9 11 11 11 11 12 13 10 7 6 6 6 6 7 7 7 7 7 7 7 6 8
17 16 13 12 14 15 15 13 14 13 9 13 12 14 16 14 15 12 13 12 13 12 14 13 12 11 12 12 10 8 7 10 8 6 6 6 6 7 7 7 7 7 7 7
10 9 4 8 11 14 12 10 9 12 12 14 16 19 17 14 13 15 13 14 15 11 13 14 12 13 14 11 11 8 7 7 10 6 6 6 6 7 7 7 7 7 7 5
6 11 10 9 6 7 6 4 6 7 9 13 11 12 11 12 16 16 14 11 7 6 9 9 12 13 13 13 11 8 7 7 7 6 6 6 6 6 6 7 7 6 3 4
11 10 9 8 8 7 6 6 6 10 11 10 10 7 8 5 5 8 11 11 11 10 7 10 15 16 14 16 12 8 8 9 7 6 6 7 6 6 6 7 6 6 7 6
9 9 8 7 6 6 8 7 7 7 9 8 8 4 5 3 8 10 10 8 1 2 14 13 15 14 15 15 12 8 9 10 8 7 7 7 8 8 6 7 7 7 7 6
5 5 5 5 5 5 5 6 6 8 8 7 8 8 9 9 8 7 6 4 3 7 10 16 12 10 9 11 9 8 8 9 8 8 9 8 8 6 6 7 6 7 6 5
3 4 5 6 5 5 6 7 7 8 6 7 8 6 6 7 7 8 6 4 5 7 7 8 8 11 10 14 8 8 7 8 7 7 7 8 8 7 7 7 7 6 6 6
3 3 4 5 5 6 5 5 7 7 8 7 6 5 4 1 2 3 2 3 5 7 6 6 9 13 15 8 8 9 8 8 7 8 8 9 8 7 7 8 7 7 6 6
3 4 3 4 5 4 4 3 5 7 8 6 4 3 3 2 2 2 2 6 8 9 5 8 11 14 12 6 7 7 7 7 7 7 7 7 6 6 5 6 6 6 6 6
5 5 4 4 4 3 4 4 4 5 6 6 7 6 5 2 2 1 2 3 7 6 5 8 11 12 7 7 7 7 6 7 7 7 7 7 7 7 6 6 6 7 7 7
3 3 3 5 5 5 5 3 3 5 5 5 4 3 3 3 3 2 2 3 4 4 3 5 6 7 6 7 7 7 6 6 7 7 7 7 6 6 6 6 5 6 7 7
2 3 2 3 2 3 2 3 4 5 5 3 5 3 3 2 1 1 3 3 3 3 3 3 4 6 6 6 7 7 6 6 8 7 6 6 5 5 6 7 7 6 6 6
Wind_Direction
262 326 348 347 304 254 244 273 206 201 196 205 202 198 202 214 223 224 227 209 213 208 203 184 178 174 159 154 155 150 147 146 146 136 129 126 119 119 123 129 131 127 123 120
259 240 240 246 259 281 285 272 257 234 259 184 220 210 214 226 220 226 223 217 214 209 211 190 190 183 167 163 162 155 148 144 138 134 136 145 148 147 136 130 132 133 140 147
227 218 265 242 214 220 230 225 238 235 248 238 216 191 209 237 222 227 221 214 205 195 197 201 197 176 182 170 148 158 153 145 148 150 152 149 138 136 144 145 147 150 147 142
227 157 234 234 191 206 217 236 229 237 257 252 224 210 221 227 204 221 230 224 217 206 193 207 188 174 141 145 156 153 159 153 156 152 155 159 151 149 145 148 154 152 147 144
199 216 265 280 245 183 184 250 38 266 255 260 183 195 255 158 229 230 217 231 224 210 189 178 177 154 145 146 148 155 165 166 164 151 160 164 165 160 155 156 148 153 153 151
270 251 234 231 343 347 191 210 20 18 9 10 178 198 262 306 258 241 230 221 189 183 148 147 155 145 145 156 161 181 173 170 164 166 167 173 169 163 160 161 159 153 151 155
241 256 251 325 304 319 187 3 349 8 350 0 4 274 296 306 288 287 262 204 140 154 156 151 137 142 153 157 185 162 146 153 162 174 172 161 153 161 157 156 150 152 150 155
218 229 245 295 47 54 359 233 269 261 251 263 247 276 284 296 294 272 226 178 161 144 141 124 143 148 152 178 131 132 138 148 163 167 161 158 157 152 156 151 152 153 147 142
223 278 202 233 218 187 165 213 226 231 250 255 274 266 296 293 293 275 235 175 172 139 132 150 138 142 138 142 139 137 150 160 164 162 151 153 156 154 154 160 161 160 160 158
298 264 323 91 210 227 217 232 248 249 277 291 273 268 286 298 296 257 200 187 172 154 163 148 131 130 127 145 135 140 144 146 150 159 152 149 156 162 159 165 163 163 163 164
286 282 279 270 266 268 260 248 238 251 266 262 271 284 270 288 286 250 206 178 197 175 159 161 160 155 161 153 148 150 153 148 151 154 160 153 161 169 172 181 175 169 176 166
255 267 263 272 272 275 274 263 268 271 278 269 253 267 273 280 246 225 215 169 176 176 144 153 165 165 159 160 159 150 152 156 154 152 161 158 153 146 172 169 174 181 170 166
253 262 264 260 272 265 256 263 267 267 264 267 261 250 238 263 264 219 200 184 186 194 161 150 162 161 158 162 165 162 160 153 149 160 162 156 158 158 151 162 166 168 172 171
255 262 270 266 263 268 248 248 254 263 257 247 239 251 256 253 255 216 215 206 206 176 151 153 172 169 164 169 168 165 157 157 158 165 160 157 158 157 153 160 165 166 175 173
268 259 251 264 269 267 261 252 251 256 258 247 238 242 253 252 253 237 213 207 190 163 150 162 167 169 171 172 168 160 151 154 153 147 157 157 151 157 159 158 163 159 153 171
301 293 277 260 262 273 263 249 240 250 259 265 259 246 233 231 249 244 210 184 164 190 184 170 173 154 163 165 154 153 159 156 142 145 151 151 157 161 158 163 163 167 171 170
297 308 271 260 260 262 254 247 257 271 271 265 266 267 238 234 240 233 197 188 189 194 172 167 165 144 164 160 165 165 149 151 137 147 158 154 162 167 163 162 168 174 175 163
288 292 285 270 297 287 290 292 309 311 275 276 292 276 227 236 236 204 180 167 117 112 151 151 138 147 159 168 167 148 144 133 150 158 152 155 164 167 165 163 166 165 154 156
347 349 350 353 342 337 342 342 325 311 308 316 314 261 255 217 148 131 133 152 163 161 176 138 145 156 162 170 153 142 141 142 154 159 164 159 164 167 164 164 167 163 162 161
345 353 352 350 349 357 344 330 319 308 308 316 330 335 179 207 154 140 134 130 282 130 136 149 153 159 163 158 148 143 153 152 158 171 173 171 179 177 174 172 169 164 167 172
333 339 331 336 337 338 339 324 324 342 323 340 10 11 12 52 44 46 86 122 81 121 136 150 154 155 151 150 146 149 160 149 160 183 186 177 179 172 173 172 172 169 173 172
339 334 336 344 352 337 334 334 337 331 345 358 9 21 35 39 57 63 47 96 123 135 147 152 148 150 147 151 154 147 155 148 171 186 181 179 188 183 182 175 178 179 178 179
289 298 321 329 320 306 323 359 343 346 348 4 16 7 21 71 106 106 123 157 142 148 150 144 141 147 152 155 155 142 157 155 186 193 186 194 193 185 181 180 180 176 175 178
298 292 267 286 301 311 316 350 356 351 346 348 11 22 33 40 54 38 70 142 144 147 164 153 154 148 152 148 143 147 160 166 188 193 187 183 182 178 174 169 175 180 180 177
333 327 315 318 317 313 327 327 346 349 348 345 349 354 8 28 63 119 121 133 154 149 141 147 156 157 157 139 146 161 161 169 183 185 182 183 183 184 181 174 179 182 184 187
323 323 329 346 343 339 329 312 306 318 317 316 313 313 339 347 16 65 99 119 137 130 121 146 161 163 149 147 161 164 169 177 180 186 182 183 180 182 180 183 180 180 187 189
27 7 329 310 291 304 294 312 297 285 267 242 276 282 260 295 297 119 129 128 142 129 119 134 155 163 163 167 166 168 172 178 182 181 183 179 177 180 184 185 188 191 187 187